When you browse on this site, cookies collect data to enhance your experience and personalize the content and advertising you see.
Visit our Privacy Policy to learn more. By continuing to use the site, you agree to this use of cookies and data.
  • In United Kingdom
  • List of Countries
  • For 7 days
  • Water Temperature
  • Satellite Maps
  • Weather Map
  • Weather Widgets
  • user-avatar
    Login

    Hourly Weather Naru

    Today, 19 July, Friday

    Time Temperature Precipitation Wind Pressure Humidity
    00:00 +28°C° 0 mm 1 mps 737 mmHg 81%
    01:00 +28°C° 0 mm 1 mps 736 mmHg 83%
    02:00 +27°C° 0 mm 1 mps 736 mmHg 86%
    03:00 +27°C° 0 mm 1 mps 736 mmHg 89%
    04:00 +26°C° 0 mm 1 mps 735 mmHg 92%
    05:00 +27°C° 0 mm 1 mps 736 mmHg 91%
    06:00 +27°C° 0 mm 1 mps 736 mmHg 90%
    07:00 +28°C° 0 mm 1 mps 737 mmHg 91%
    08:00 +30°C° 0.1 mm 2 mps 737 mmHg 82%
    09:00 +31°C° 0.1 mm 2 mps 737 mmHg 73%
    10:00 +34°C° 0.1 mm 2 mps 737 mmHg 64%
    11:00 +35°C° 0 mm 2 mps 737 mmHg 60%
    12:00 +36°C° 0 mm 2 mps 737 mmHg 57%
    13:00 +37°C° 0 mm 2 mps 737 mmHg 55%
    14:00 +36°C° 0.1 mm 2 mps 736 mmHg 56%
    15:00 +36°C° 0.1 mm 2 mps 736 mmHg 58%
    16:00 +36°C° 0.1 mm 2 mps 735 mmHg 60%
    17:00 +33°C° 0 mm 1 mps 735 mmHg 66%
    18:00 +32°C° 0 mm 1 mps 736 mmHg 72%
    19:00 +30°C° 0 mm 1 mps 736 mmHg 80%
    20:00 +30°C° 0 mm 1 mps 736 mmHg 82%
    21:00 +29°C° 0 mm 1 mps 737 mmHg 84%
    22:00 +29°C° 0 mm 1 mps 737 mmHg 87%
    23:00 +28°C° 0 mm 1 mps 737 mmHg 88%

    Tomorrow, 20 July, Saturday

    Time Temperature Precipitation Wind Pressure Humidity
    00:00 +28°C° 0 mm 1 mps 737 mmHg 89%
    01:00 +28°C° 0 mm 1 mps 737 mmHg 91%
    02:00 +27°C° 0.1 mm 1 mps 737 mmHg 92%
    03:00 +27°C° 0.1 mm 1 mps 737 mmHg 94%
    04:00 +27°C° 0.1 mm 1 mps 737 mmHg 96%
    05:00 +27°C° 0.1 mm 1 mps 737 mmHg 95%
    06:00 +27°C° 0.1 mm 1 mps 738 mmHg 94%
    07:00 +28°C° 0.1 mm 1 mps 738 mmHg 93%
    08:00 +29°C° 0.1 mm 1 mps 738 mmHg 84%
    09:00 +31°C° 0.1 mm 2 mps 738 mmHg 76%
    10:00 +32°C° 0.1 mm 2 mps 739 mmHg 68%
    11:00 +35°C° 0.1 mm 2 mps 738 mmHg 64%
    12:00 +36°C° 0.1 mm 2 mps 737 mmHg 60%
    13:00 +37°C° 0.1 mm 2 mps 737 mmHg 55%
    14:00 +36°C° 0.1 mm 2 mps 736 mmHg 57%
    15:00 +36°C° 0.1 mm 2 mps 736 mmHg 58%
    16:00 +36°C° 0.1 mm 2 mps 735 mmHg 59%
    17:00 +34°C° 0 mm 2 mps 735 mmHg 67%
    18:00 +32°C° 0 mm 1 mps 736 mmHg 75%
    19:00 +30°C° 0 mm 1 mps 736 mmHg 82%
    20:00 +29°C° 0 mm 1 mps 737 mmHg 85%
    21:00 +27°C° 0 mm 0 mps 737 mmHg 87%
    22:00 +26°C° 0 mm 0 mps 738 mmHg 89%
    23:00 +26°C° 0 mm 0 mps 738 mmHg 90%

    Day after tomorrow, 21 July, Sunday

    Time Temperature Precipitation Wind Pressure Humidity
    00:00 +26°C° 0 mm 0 mps 738 mmHg 91%
    01:00 +25°C° 0 mm 0 mps 737 mmHg 92%
    02:00 +25°C° 0.1 mm 0 mps 737 mmHg 93%
    03:00 +27°C° 0.1 mm 1 mps 737 mmHg 94%
    04:00 +27°C° 0.1 mm 1 mps 737 mmHg 95%
    05:00 +27°C° 0.1 mm 1 mps 737 mmHg 94%
    06:00 +28°C° 0.1 mm 1 mps 738 mmHg 93%
    07:00 +28°C° 0.1 mm 1 mps 738 mmHg 92%
    08:00 +30°C° 0.1 mm 2 mps 738 mmHg 83%
    09:00 +31°C° 0.1 mm 2 mps 738 mmHg 75%
    10:00 +34°C° 0.1 mm 3 mps 739 mmHg 66%
    11:00 +35°C° 0.1 mm 3 mps 738 mmHg 63%
    12:00 +35°C° 0.1 mm 3 mps 738 mmHg 60%
    13:00 +36°C° 0.1 mm 3 mps 737 mmHg 57%
    14:00 +35°C° 1.1 mm 3 mps 736 mmHg 65%
    15:00 +34°C° 1.1 mm 2 mps 736 mmHg 73%
    16:00 +32°C° 1.1 mm 2 mps 735 mmHg 81%
    17:00 +30°C° 0.7 mm 1 mps 735 mmHg 85%
    18:00 +29°C° 0.7 mm 1 mps 736 mmHg 89%
    19:00 +28°C° 0.7 mm 1 mps 736 mmHg 93%
    20:00 +28°C° 0.1 mm 1 mps 737 mmHg 94%
    21:00 +27°C° 0.1 mm 1 mps 738 mmHg 94%
    22:00 +27°C° 0.1 mm 1 mps 738 mmHg 94%
    23:00 +27°C° 0.3 mm 1 mps 738 mmHg 95%

    22 July, Monday

    Time Temperature Precipitation Wind Pressure Humidity
    00:00 +27°C° 0.3 mm 1 mps 738 mmHg 95%
    01:00 +27°C° 0.3 mm 1 mps 738 mmHg 95%
    02:00 +27°C° 0.1 mm 1 mps 737 mmHg 95%
    03:00 +26°C° 0.1 mm 1 mps 737 mmHg 96%
    04:00 +26°C° 0.1 mm 1 mps 737 mmHg 96%
    05:00 +26°C° 0 mm 1 mps 737 mmHg 96%
    06:00 +26°C° 0 mm 1 mps 738 mmHg 95%
    07:00 +26°C° 0 mm 1 mps 738 mmHg 95%
    08:00 +26°C° 0.1 mm 2 mps 738 mmHg 93%
    09:00 +27°C° 0.1 mm 2 mps 738 mmHg 91%
    10:00 +27°C° 0.1 mm 2 mps 739 mmHg 90%
    11:00 +27°C° 0.1 mm 2 mps 738 mmHg 90%
    12:00 +27°C° 0.1 mm 2 mps 738 mmHg 90%
    13:00 +27°C° 0.1 mm 2 mps 737 mmHg 90%
    14:00 +27°C° 0.9 mm 2 mps 737 mmHg 91%
    15:00 +27°C° 0.9 mm 2 mps 736 mmHg 93%
    16:00 +27°C° 0.9 mm 1 mps 736 mmHg 95%
    17:00 +27°C° 0.4 mm 1 mps 736 mmHg 96%
    18:00 +26°C° 0.4 mm 1 mps 737 mmHg 97%
    19:00 +26°C° 0.4 mm 1 mps 737 mmHg 98%
    20:00 +26°C° 0.2 mm 1 mps 737 mmHg 98%
    21:00 +26°C° 0.2 mm 1 mps 738 mmHg 98%
    22:00 +25°C° 0.2 mm 1 mps 739 mmHg 98%
    23:00 +25°C° 0 mm 1 mps 738 mmHg 98%

    23 July, Tuesday

    Time Temperature Precipitation Wind Pressure Humidity
    00:00 +25°C° 0 mm 1 mps 738 mmHg 99%
    01:00 +25°C° 0 mm 1 mps 737 mmHg 99%
    02:00 +25°C° 0 mm 1 mps 737 mmHg 98%
    03:00 +25°C° 0 mm 1 mps 737 mmHg 98%
    04:00 +25°C° 0 mm 1 mps 737 mmHg 98%
    05:00 +25°C° 0.1 mm 1 mps 737 mmHg 98%
    06:00 +25°C° 0.1 mm 1 mps 738 mmHg 97%
    07:00 +25°C° 0.1 mm 1 mps 738 mmHg 97%
    08:00 +26°C° 0.1 mm 2 mps 738 mmHg 94%
    09:00 +26°C° 0.1 mm 2 mps 739 mmHg 91%
    10:00 +27°C° 0.1 mm 3 mps 739 mmHg 89%
    11:00 +27°C° 0.4 mm 3 mps 739 mmHg 88%
    12:00 +27°C° 0.4 mm 2 mps 739 mmHg 87%
    13:00 +27°C° 0.4 mm 2 mps 738 mmHg 86%
    14:00 +28°C° 0 mm 2 mps 738 mmHg 81%
    15:00 +28°C° 0 mm 2 mps 738 mmHg 76%
    16:00 +29°C° 0 mm 3 mps 738 mmHg 70%
    17:00 +28°C° 0 mm 2 mps 738 mmHg 74%
    18:00 +27°C° 0 mm 1 mps 738 mmHg 77%
    19:00 +26°C° 0 mm 1 mps 738 mmHg 81%
    20:00 +25°C° 0 mm 1 mps 738 mmHg 83%
    21:00 +25°C° 0 mm 1 mps 739 mmHg 85%
    22:00 +22°C° 0 mm 0 mps 739 mmHg 87%
    23:00 +22°C° 0 mm 0 mps 739 mmHg 87%

    24 July, Wednesday

    Time Temperature Precipitation Wind Pressure Humidity
    00:00 +22°C° 0 mm 0 mps 738 mmHg 88%
    01:00 +22°C° 0 mm 0 mps 738 mmHg 88%
    02:00 +22°C° 0 mm 0 mps 738 mmHg 89%
    03:00 +22°C° 0 mm 0 mps 738 mmHg 89%
    04:00 +24°C° 0 mm 1 mps 738 mmHg 90%
    05:00 +22°C° 0.1 mm 0 mps 739 mmHg 92%
    06:00 +22°C° 0.1 mm 0 mps 739 mmHg 93%
    07:00 +22°C° 0.1 mm 0 mps 739 mmHg 95%
    08:00 +25°C° 0 mm 1 mps 740 mmHg 92%
    09:00 +25°C° 0 mm 1 mps 740 mmHg 89%
    10:00 +26°C° 0 mm 1 mps 740 mmHg 86%
    11:00 +27°C° 0 mm 1 mps 740 mmHg 83%
    12:00 +27°C° 0 mm 2 mps 740 mmHg 79%
    13:00 +28°C° 0 mm 2 mps 739 mmHg 76%
    14:00 +27°C° 0 mm 2 mps 739 mmHg 79%
    15:00 +26°C° 0 mm 1 mps 739 mmHg 81%
    16:00 +26°C° 0 mm 1 mps 738 mmHg 84%
    17:00 +25°C° 0 mm 1 mps 739 mmHg 87%
    18:00 +25°C° 0 mm 1 mps 739 mmHg 90%
    19:00 +24°C° 0 mm 1 mps 739 mmHg 93%
    20:00 +22°C° 0 mm 0 mps 740 mmHg 93%
    21:00 +22°C° 0 mm 0 mps 740 mmHg 93%
    22:00 +22°C° 0 mm 0 mps 741 mmHg 94%
    23:00 +22°C° 0 mm 0 mps 741 mmHg 94%
    Show more